sat.trackr.live / text

‹ back to catalog

STARLINK-5634

NORAD 55439 · 2023-014BA

PAYLOAD ACTIVE UNKNOWN

§ Identity

Operator
Country
US
Launch date
2023-01-31
Launch site
AFWTR
Launch vehicle
Mass (kg)
RCS (m²)

Purposes: comms

External: N2YO · Heavens-Above · Gunter

§ Orbital elements

Epoch: 2026-09-20T14:34:10.203456Z

Period
96.11 min
Inclination
69.9997°
Eccentricity
0.0003286
Mean motion
14.98331245 rev/d
Perigee alt
569.8 km
Apogee alt
574.3 km
Semi-major
6,950.2 km
B*
1.6882e-5
RAAN
333.0758°
Arg perigee
269.8194°
Mean anomaly
90.2588°
Rev number
20,026

§ Raw data

STARLINK-56341 55439U 23014BA  26263.60706254  .00000108  00000+0  16882-4 0  99922 55439  69.9997 333.0758 0003286 269.8194  90.2588 14.98331245200266

JSON: /api/v1/satellites/55439 · /tle

For live sub-satellite position, see the globe view (requires WebGL).

§ Visibility from observer

Set your observer location to see the next 7 days of passes ≥ 10°. The values pass through the URL so the page stays shareable.

No JS? Fill the form by hand. The geolocation button needs JavaScript.